(°C)
-2°
-1°
(°C)
-5°
-4°
-3°
-2°
-0°
N
N
N
N
NNE
NNE
NE
(km/h)
4-15
5-16
4-16
4-16
4-16
6-18
9-19
(mm)
0
0
0
0
0
0
0
(%)
0
0
0
0
0
0
0

Elevazione del sole

/ -11°
sun-icon
UV 2
07:09
19:02
Gibbosa calante (264°)
21:51
15:29

METAR per 55.27°N 86.11°E (UNEE)

Ora Condizioni Temperatura/
Punto di rugiada
Vento Visibilità Tempo Nuvole Pressione Cambiamento Grezzo
MVFR -2°C / -2°C 350º 6kt 8000m - Few Clouds 100ft 1021 No Significant change UNEE 272230Z 35003MPS 8000 FEW001 M02/M02 Q1021 R23/CLRD60 NOSIG RMK QBB030 QFE742
LIFR -1°C / -2°C 340º 4kt 1500m. Runway 23: Visual range is 2000m and decreasing. freezing Fog Vertical Visibility of 0ft. 1021 No Significant change UNEE 272200Z 34002MPS 1500 0650SE R23/P2000D FZFG SCT001 M01/M02 Q1021 R23/CLRD60 NOSIG RMK QBB050 QFE742
LIFR -1°C / -1°C 330º 2kt 350m freezing Fog Vertical Visibility of 0ft. 1021 No Significant change UNEE 272130Z 33001MPS 0350 0200SW FZFG SCT001 M01/M01 Q1021 R23/CLRD60 NOSIG RMK QBB040 QFE743
MVFR 0°C / -1°C variable 0kt 6000m Mist Vertical Visibility of 0ft. 1021 No Significant change UNEE 272100Z 00000MPS 6000 1100SW BR FEW001 M00/M01 Q1021 R23/CLRD60 NOSIG RMK QBB050 QFE743
LIFR 0°C / -1°C variable 0kt 260m freezing Fog Vertical Visibility of 0ft. 1021 No Significant change UNEE 272030Z 00000MPS 0250 0150SE FZFG NSC M00/M01 Q1021 R23/CLRD60 NOSIG RMK QFE743
LIFR -1°C / -1°C variable 0kt 900m freezing Fog Vertical Visibility of 0ft. 1022 No Significant change UNEE 272000Z 00000MPS 0900 0600SE FZFG NSC M01/M01 Q1022 R23/CLRD60 NOSIG RMK QFE743
VFR 0°C / 0°C variable 0kt >10km - Clouds and Visibility OK 1022 No Significant change UNEE 271930Z 00000MPS CAVOK 00/M00 Q1022 R23/CLRD60 NOSIG RMK QFE743
VFR 0°C / 0°C variable 0kt >10km - Clouds and Visibility OK 1022 No Significant change UNEE 271900Z 00000MPS CAVOK 00/M00 Q1022 R23/CLRD60 NOSIG RMK QFE743
VFR 0°C / 0°C variable 0kt >10km - Clouds and Visibility OK 1022 No Significant change UNEE 271830Z 00000MPS CAVOK M00/M00 Q1022 R23/CLRD60 NOSIG RMK QFE743
VFR 0°C / 0°C variable 0kt >10km - Clouds and Visibility OK 1022 No Significant change UNEE 271800Z 00000MPS CAVOK 00/M00 Q1022 R23/CLRD60 NOSIG RMK QFE744
VFR 0°C / 0°C 150º 4kt >10km - Clouds and Visibility OK 1023 No Significant change UNEE 271730Z 15002MPS CAVOK 00/M00 Q1023 R23/CLRD60 NOSIG RMK QFE744
VFR 0°C / 0°C 170º 2kt 9000m - Clear 1023 No Significant change UNEE 271700Z 17001MPS 9000 NSC 00/M00 Q1023 R23/CLRD60 NOSIG RMK QFE744
VFR 1°C / 0°C 140º 2kt >10km - Clear 1023 No Significant change UNEE 271630Z 14001MPS 9999 NSC 01/M00 Q1023 R23/CLRD60 NOSIG RMK QFE744
VFR 0°C / 0°C 90º 2kt >10km - Few Clouds 4900ft 1023 No Significant change UNEE 271600Z 09001MPS 9999 FEW049 00/M00 Q1023 R23/CLRD60 NOSIG RMK QFE744
VFR 1°C / 0°C 100º 2kt >10km - Scattered Clouds 4900ft 1023 No Significant change UNEE 271530Z 10001MPS 9999 SCT049 01/00 Q1023 R23/CLRD60 NOSIG RMK QFE744
VFR 1°C / 0°C 100º 2kt >10km - Scattered Clouds 4900ft 1024 No Significant change UNEE 271500Z 10001MPS 9999 SCT049 01/00 Q1024 R23/CLRD60 NOSIG RMK QFE745
VFR 2°C / 0°C 160º 4kt >10km - Scattered Clouds 4300ft 1024 No Significant change UNEE 271430Z 16002MPS 9999 SCT043 02/00 Q1024 R23/CLRD60 NOSIG RMK QFE745
VFR 2°C / 0°C 170º 4kt >10km - Scattered Clouds 4300ft 1024 No Significant change UNEE 271400Z 17002MPS 9999 SCT043 02/00 Q1024 R23/CLRD60 NOSIG RMK QFE745
VFR 2°C / 0°C 180º 4kt >10km - Scattered Clouds 4300ft 1024 No Significant change UNEE 271330Z 18002MPS 9999 SCT043 02/00 Q1024 R23/CLRD60 NOSIG RMK QFE745
VFR 2°C / 0°C 160º 4kt >10km - Scattered Clouds 4300ft 1024 No Significant change UNEE 271300Z 16002MPS 9999 SCT043 02/00 Q1024 R23/CLRD60 NOSIG RMK QFE745
VFR 2°C / 1°C 180º 4kt >10km - Scattered Clouds 1800ft 1025 No Significant change UNEE 271230Z 18002MPS 9999 SCT018CB BKN043 02/01 Q1025 R23/CLRD60 NOSIG RMK QFE745
VFR 2°C / 0°C 150º 4kt >10km - Scattered Clouds 4400ft 1024 No Significant change UNEE 271200Z 15002MPS 9999 SCT044 02/00 Q1024 R23/CLRD60 NOSIG RMK QFE745
VFR 3°C / 1°C 140º 4kt >10km - Clouds and Visibility OK 1024 No Significant change UNEE 271130Z 14002MPS CAVOK 03/01 Q1024 R23/CLRD60 NOSIG RMK QFE745
VFR 3°C / 0°C 150º 4kt >10km - Clouds and Visibility OK 1024 No Significant change UNEE 271100Z 15002MPS CAVOK 03/00 Q1024 R23/CLRD60 NOSIG RMK QFE745

MVFR

-2°C / -2°C

[Più]
Vento 350º 6kt
Visibilità 8000m
Tempo -
Nuvole Few Clouds 100ft
Pressione 1021
Cambiamento No Significant change
Grezzo UNEE 272230Z 35003MPS 8000 FEW001 M02/M02 Q1021 R23/CLRD60 NOSIG RMK QBB030 QFE742

LIFR

-1°C / -2°C

[Più]
Vento 340º 4kt
Visibilità 1500m. Runway 23: Visual range is 2000m and decreasing.
Tempo freezing Fog
Nuvole Vertical Visibility of 0ft.
Pressione 1021
Cambiamento No Significant change
Grezzo UNEE 272200Z 34002MPS 1500 0650SE R23/P2000D FZFG SCT001 M01/M02 Q1021 R23/CLRD60 NOSIG RMK QBB050 QFE742

LIFR

-1°C / -1°C

[Più]
Vento 330º 2kt
Visibilità 350m
Tempo freezing Fog
Nuvole Vertical Visibility of 0ft.
Pressione 1021
Cambiamento No Significant change
Grezzo UNEE 272130Z 33001MPS 0350 0200SW FZFG SCT001 M01/M01 Q1021 R23/CLRD60 NOSIG RMK QBB040 QFE743

MVFR

0°C / -1°C

[Più]
Vento variable 0kt
Visibilità 6000m
Tempo Mist
Nuvole Vertical Visibility of 0ft.
Pressione 1021
Cambiamento No Significant change
Grezzo UNEE 272100Z 00000MPS 6000 1100SW BR FEW001 M00/M01 Q1021 R23/CLRD60 NOSIG RMK QBB050 QFE743

LIFR

0°C / -1°C

[Più]
Vento variable 0kt
Visibilità 260m
Tempo freezing Fog
Nuvole Vertical Visibility of 0ft.
Pressione 1021
Cambiamento No Significant change
Grezzo UNEE 272030Z 00000MPS 0250 0150SE FZFG NSC M00/M01 Q1021 R23/CLRD60 NOSIG RMK QFE743

LIFR

-1°C / -1°C

[Più]
Vento variable 0kt
Visibilità 900m
Tempo freezing Fog
Nuvole Vertical Visibility of 0ft.
Pressione 1022
Cambiamento No Significant change
Grezzo UNEE 272000Z 00000MPS 0900 0600SE FZFG NSC M01/M01 Q1022 R23/CLRD60 NOSIG RMK QFE743

VFR

0°C / 0°C

[Più]
Vento variable 0kt
Visibilità >10km
Tempo -
Nuvole Clouds and Visibility OK
Pressione 1022
Cambiamento No Significant change
Grezzo UNEE 271930Z 00000MPS CAVOK 00/M00 Q1022 R23/CLRD60 NOSIG RMK QFE743

VFR

0°C / 0°C

[Più]
Vento variable 0kt
Visibilità >10km
Tempo -
Nuvole Clouds and Visibility OK
Pressione 1022
Cambiamento No Significant change
Grezzo UNEE 271900Z 00000MPS CAVOK 00/M00 Q1022 R23/CLRD60 NOSIG RMK QFE743

VFR

0°C / 0°C

[Più]
Vento variable 0kt
Visibilità >10km
Tempo -
Nuvole Clouds and Visibility OK
Pressione 1022
Cambiamento No Significant change
Grezzo UNEE 271830Z 00000MPS CAVOK M00/M00 Q1022 R23/CLRD60 NOSIG RMK QFE743

VFR

0°C / 0°C

[Più]
Vento variable 0kt
Visibilità >10km
Tempo -
Nuvole Clouds and Visibility OK
Pressione 1022
Cambiamento No Significant change
Grezzo UNEE 271800Z 00000MPS CAVOK 00/M00 Q1022 R23/CLRD60 NOSIG RMK QFE744

VFR

0°C / 0°C

[Più]
Vento 150º 4kt
Visibilità >10km
Tempo -
Nuvole Clouds and Visibility OK
Pressione 1023
Cambiamento No Significant change
Grezzo UNEE 271730Z 15002MPS CAVOK 00/M00 Q1023 R23/CLRD60 NOSIG RMK QFE744

VFR

0°C / 0°C

[Più]
Vento 170º 2kt
Visibilità 9000m
Tempo -
Nuvole Clear
Pressione 1023
Cambiamento No Significant change
Grezzo UNEE 271700Z 17001MPS 9000 NSC 00/M00 Q1023 R23/CLRD60 NOSIG RMK QFE744

VFR

1°C / 0°C

[Più]
Vento 140º 2kt
Visibilità >10km
Tempo -
Nuvole Clear
Pressione 1023
Cambiamento No Significant change
Grezzo UNEE 271630Z 14001MPS 9999 NSC 01/M00 Q1023 R23/CLRD60 NOSIG RMK QFE744

VFR

0°C / 0°C

[Più]
Vento 90º 2kt
Visibilità >10km
Tempo -
Nuvole Few Clouds 4900ft
Pressione 1023
Cambiamento No Significant change
Grezzo UNEE 271600Z 09001MPS 9999 FEW049 00/M00 Q1023 R23/CLRD60 NOSIG RMK QFE744

VFR

1°C / 0°C

[Più]
Vento 100º 2kt
Visibilità >10km
Tempo -
Nuvole Scattered Clouds 4900ft
Pressione 1023
Cambiamento No Significant change
Grezzo UNEE 271530Z 10001MPS 9999 SCT049 01/00 Q1023 R23/CLRD60 NOSIG RMK QFE744

VFR

1°C / 0°C

[Più]
Vento 100º 2kt
Visibilità >10km
Tempo -
Nuvole Scattered Clouds 4900ft
Pressione 1024
Cambiamento No Significant change
Grezzo UNEE 271500Z 10001MPS 9999 SCT049 01/00 Q1024 R23/CLRD60 NOSIG RMK QFE745

VFR

2°C / 0°C

[Più]
Vento 160º 4kt
Visibilità >10km
Tempo -
Nuvole Scattered Clouds 4300ft
Pressione 1024
Cambiamento No Significant change
Grezzo UNEE 271430Z 16002MPS 9999 SCT043 02/00 Q1024 R23/CLRD60 NOSIG RMK QFE745

VFR

2°C / 0°C

[Più]
Vento 170º 4kt
Visibilità >10km
Tempo -
Nuvole Scattered Clouds 4300ft
Pressione 1024
Cambiamento No Significant change
Grezzo UNEE 271400Z 17002MPS 9999 SCT043 02/00 Q1024 R23/CLRD60 NOSIG RMK QFE745

VFR

2°C / 0°C

[Più]
Vento 180º 4kt
Visibilità >10km
Tempo -
Nuvole Scattered Clouds 4300ft
Pressione 1024
Cambiamento No Significant change
Grezzo UNEE 271330Z 18002MPS 9999 SCT043 02/00 Q1024 R23/CLRD60 NOSIG RMK QFE745

VFR

2°C / 0°C

[Più]
Vento 160º 4kt
Visibilità >10km
Tempo -
Nuvole Scattered Clouds 4300ft
Pressione 1024
Cambiamento No Significant change
Grezzo UNEE 271300Z 16002MPS 9999 SCT043 02/00 Q1024 R23/CLRD60 NOSIG RMK QFE745

VFR

2°C / 1°C

[Più]
Vento 180º 4kt
Visibilità >10km
Tempo -
Nuvole Scattered Clouds 1800ft
Pressione 1025
Cambiamento No Significant change
Grezzo UNEE 271230Z 18002MPS 9999 SCT018CB BKN043 02/01 Q1025 R23/CLRD60 NOSIG RMK QFE745

VFR

2°C / 0°C

[Più]
Vento 150º 4kt
Visibilità >10km
Tempo -
Nuvole Scattered Clouds 4400ft
Pressione 1024
Cambiamento No Significant change
Grezzo UNEE 271200Z 15002MPS 9999 SCT044 02/00 Q1024 R23/CLRD60 NOSIG RMK QFE745

VFR

3°C / 1°C

[Più]
Vento 140º 4kt
Visibilità >10km
Tempo -
Nuvole Clouds and Visibility OK
Pressione 1024
Cambiamento No Significant change
Grezzo UNEE 271130Z 14002MPS CAVOK 03/01 Q1024 R23/CLRD60 NOSIG RMK QFE745

VFR

3°C / 0°C

[Più]
Vento 150º 4kt
Visibilità >10km
Tempo -
Nuvole Clouds and Visibility OK
Pressione 1024
Cambiamento No Significant change
Grezzo UNEE 271100Z 15002MPS CAVOK 03/00 Q1024 R23/CLRD60 NOSIG RMK QFE745

TAF per 55.27°N 86.11°E (UNEE)

From till


From till Wind 30º 6kt. Gust 16kt. Visibility 144.841m. freezing Fog . Broken Clouds 100ft.
Temporarly from till Visibility 1500m. Mist . Broken Clouds 500ft.
Becoming from till Wind 30º 6kt. Gust 16kt. Visibility 10km or more. Scattered Clouds 4000ft.

Grezzo: TAF AMD UNEE 272148Z 2721/2821 03003G08MPS 0150 FZFG BKN001 TEMPO 2721/2803 1500 BR BKN005 BECMG 2803/2804 9999 NSW SCT040

Tempo in atto per 55.27°N 86.11°E: immagine satellitare e pioggia

Il segnaposto è situato a 55.27°N 86.11°E. [Più]

L'immagine satellitare in tempo reale combina la luce visibile durante il giorno con la radiazione infrarossa durante la notte. Di notte l'immagine non è scura poiché i raggi infrarossi possono rilevare differenze di temperatura. Purtroppo, le nuvole basse e la nebbia sono difficili da distinguere dalla temperatura del suolo e possono pertanto essere quasi invisibili durante la notte. Le immagini satellitari Meteosat per l'Europa vengono aggiornate in tempo reale ogni 5 minuti. Le immagini GOES-16 / GOES-17 (Nord e Sud America) e Himawari (Asia) vengono aggiornate ogni 10 minuti.

Copyright 2021 EUMETSAT / meteoblue. / Copyright 2021 meteoblue

Radar e nowcasting per 55.27°N 86.11°E

Pioggerella
Lieve
Moderato
Forte
Molto forte
Grandine

Il segnaposto è situato a 55.27°N 86.11°E. Questa animazione mostra il radar delle precipitazioni per l'ultima ora, nonché una previsione 1h. Una pioggerella o una leggera caduta di neve potrebbero essere invisibili per il radar. L'intensità delle precipitazioni è codificata a colori, dal blu chiaro all'arancione.